KF6ILA Weather Reports


Display with metric or nautical units.
time (UTC)temp
F
wind
direction
speed
MPH
gust
MPH
rain 1hr
in
rain 24hr
in
rain mn
in
humidity
%
barometer
mb
20260901230513 77 264 18.0 25.0 0.00 0.00 0.00 42 1016.4
20260901230016 77 270 15.0 24.0 0.00 0.00 0.00 42 1016.4
20260901225519 78 253 16.0 24.0 0.00 0.00 0.00 40 1016.4
20260901225022 78 263 13.0 26.0 0.00 0.00 0.00 41 1016.2
20260901224525 78 266 15.0 26.0 0.00 0.00 0.00 41 1016.3
20260901223531 78 262 15.0 26.0 0.00 0.00 0.00 38 1016.4
20260901223034 78 268 18.0 26.0 0.00 0.00 0.00 38 1016.4
20260901221543 79 275 12.0 23.0 0.00 0.00 0.00 38 1016.6
20260901221046 79 271 12.0 23.0 0.00 0.00 0.00 38 1016.6
20260901220549 78 261 12.0 26.0 0.00 0.00 0.00 39 1016.6
20260901220052 78 269 19.0 26.0 0.00 0.00 0.00 37 1016.6
20260901215058 78 279 14.0 26.0 0.00 0.00 0.00 37 1016.8
20260901213607 79 259 13.0 20.0 0.00 0.00 0.00 36 1016.9
20260901213110 78 257 13.0 24.0 0.00 0.00 0.00 36 1017.1
20260901212613 78 259 16.0 26.0 0.00 0.00 0.00 35 1017.2
20260901212116 78 257 17.0 26.0 0.00 0.00 0.00 35 1017.1
20260901211619 79 231 16.0 24.0 0.00 0.00 0.00 34 1017.2
20260901211122 79 247 18.0 24.0 0.00 0.00 0.00 34 1017.2
20260901210128 80 271 16.0 23.0 0.00 0.00 0.00 33 1017.3
20260901205631 80 227 12.0 21.0 0.00 0.00 0.00 33 1017.5
20260901205134 79 231 15.0 21.0 0.00 0.00 0.00 34 1017.4
20260901204637 79 278 11.0 23.0 0.00 0.00 0.00 33 1017.4
20260901203643 79 259 14.0 20.0 0.00 0.00 0.00 33 1017.5
20260901203146 79 257 11.0 20.0 0.00 0.00 0.00 33 1017.5
20260901202649 80 270 10.0 20.0 0.00 0.00 0.00 33 1017.7
20260901202152 80 236 10.0 20.0 0.00 0.00 0.00 34 1017.7
20260901201158 80 250 11.0 20.0 0.00 0.00 0.00 35 1017.8
20260901200701 79 249 11.0 21.0 0.00 0.00 0.00 34 1017.7
20260901200204 80 264 14.0 23.0 0.00 0.00 0.00 34 1017.6
20260901194713 79 253 11.0 21.0 0.00 0.00 0.00 35 1017.7
20260901194216 78 240 10.0 26.0 0.00 0.00 0.00 35 1017.0
20260901193719 78 256 14.0 26.0 0.00 0.00 0.00 33 1017.0
20260901193222 79 271 12.0 20.0 0.00 0.00 0.00 33 1016.9
20260901192228 79 235 11.0 21.0 0.00 0.00 0.00 32 1017.1
20260901191234 78 234 11.0 21.0 0.00 0.00 0.00 32 1017.2
20260901190737 77 238 11.0 21.0 0.00 0.00 0.00 31 1017.1
20260901190240 77 269 13.0 22.0 0.00 0.00 0.00 32 1017.2
20260901184749 77 261 12.0 22.0 0.00 0.00 0.00 31 1017.4
20260901184252 77 264 12.0 21.0 0.00 0.00 0.00 29 1017.5
20260901183755 77 227 14.0 22.0 0.00 0.00 0.00 30 1017.4
20260901183258 77 238 9.0 22.0 0.00 0.00 0.00 32 1017.4
20260901182801 77 232 11.0 25.0 0.00 0.00 0.00 29 1017.5
20260901182305 76 222 13.0 25.0 0.00 0.00 0.00 30 1017.6
20260901181310 76 237 13.0 21.0 0.00 0.00 0.00 30 1017.5
20260901180813 76 254 13.0 21.0 0.00 0.00 0.00 28 1017.5
20260901180316 75 254 9.0 20.0 0.00 0.00 0.00 27 1017.6
20260901175819 75 269 11.0 23.0 0.00 0.00 0.00 25 1017.5
20260901175322 75 259 10.0 23.0 0.00 0.00 0.00 25 1017.5
20260901174328 75 274 9.0 21.0 0.00 0.00 0.00 24 1017.4
20260901173831 75 262 12.0 21.0 0.00 0.00 0.00 25 1017.4
20260901173334 74 235 11.0 19.0 0.00 0.00 0.00 24 1017.3
20260901172837 74 272 11.0 18.0 0.00 0.00 0.00 23 1017.4
20260901172340 74 264 7.0 21.0 0.00 0.00 0.00 23 1017.4
20260901171843 73 255 11.0 21.0 0.00 0.00 0.00 25 1017.3
20260901170849 73 262 12.0 22.0 0.00 3.00 0.00
20260901170352 0 266 9.0 21.0 0.00 0.00 0.00 24 1017.2
20260901165855 72 272 12.0 21.0 0.00 0.00 0.00 24 1017.3
20260901165358 72 259 17.0 21.0 0.00 0.00 0.00 23 1017.3
20260901164901 72 266 12.0 19.0 0.00 0.00 0.00 24 1017.1
20260901164404 72 258 11.0 19.0 0.00 0.00 0.00 24 1017.0
20260901163907 72 247 11.0 19.0 0.00 0.00 0.00 23 1017.0
20260901163410 71 245 11.0 19.0 0.00 0.00 0.00 23 1016.9
20260901162913 71 260 12.0 18.0 0.00 0.00 0.00 23 1017.0
20260901162416 71 253 10.0 19.0 0.00 0.00 0.00 23 1016.8
20260901161919 70 262 12.0 22.0 0.00 0.00 0.00 23 1016.8
20260901161422 70 264 14.0 22.0 0.00 0.00 0.00 23 1016.7
20260901160925 70 268 11.0 21.0 0.00 0.00 0.00 24 1016.6
20260901155931 70 273 12.0 21.0 0.00 0.00 0.00 24 1016.4
20260901155434 69 278 13.0 20.0 0.00 0.00 0.00 24 1016.4
20260901153943 69 277 12.0 20.0 0.00 0.00 0.00 24 1016.2
20260901153446 68 277 14.0 20.0 0.00 0.00 0.00 24 1016.2
20260901151955 68 273 13.0 21.0 0.00 0.00 0.00 24 1016.2
20260901151001 67 270 12.0 18.0 0.00 0.00 0.00 25 1016.3
20260901144516 66 279 11.0 19.0 0.00 0.00 0.00 25 1016.1
20260901144019 66 272 11.0 21.0 0.00 0.00 0.00 25 1016.0
20260901143522 66 267 14.0 21.0 0.00 0.00 0.00 25 1016.0
20260901141534 65 269 12.0 22.0 0.00 0.00 0.00 25 1015.8
20260901140043 65 272 14.0 23.0 0.00 0.00 0.00 25 1015.8
20260901135049 65 264 13.0 24.0 0.00 0.00 0.00 25 1015.7
20260901134552 65 262 14.0 24.0 0.00 0.00 0.00 25 1015.6
20260901134055 65 262 15.0 23.0 0.00 0.00 0.00 25 1015.7
20260901133558 65 257 14.0 22.0 0.00 0.00 0.00 26 1015.5
20260901133101 64 264 13.0 19.0 0.00 0.00 0.00 26 1015.5
20260901132604 64 261 13.0 20.0 0.00 0.00 0.00 26 1015.4
20260901131610 64 254 12.0 19.0 0.00 0.00 0.00 25 1015.4
20260901131113 64 263 12.0 19.0 0.00 0.00 0.00 25 1015.5
20260901130119 64 261 11.0 17.0 0.00 0.00 0.00 25 1015.5
20260901125622 64 258 11.0 19.0 0.00 0.00 0.00 26 1015.5
20260901124628 64 256 12.0 19.0 0.00 0.00 0.00 26 1015.4
20260901124131 64 261 12.0 19.0 0.00 0.00 0.00 26 1015.4
20260901123137 64 256 14.0 19.0 0.00 0.00 0.00 27 1015.3
20260901122640 63 253 15.0 19.0 0.00 0.00 0.00 27 1015.3
20260901122143 63 255 13.0 18.0 0.00 0.00 0.00 27 1015.3
20260901121648 64 256 13.0 19.0 0.00 0.00 0.00 27 1015.3
20260901121149 64 255 14.0 19.0 0.00 0.00 0.00 27 1015.3
20260901120652 63 257 13.0 18.0 0.00 0.00 0.00 28 1015.2
20260901120155 64 254 13.0 18.0 0.00 0.00 0.00 28 1015.1
20260901115201 64 258 13.0 18.0 0.00 0.00 0.00 28 1015.2
20260901114207 64 259 12.0 19.0 0.00 0.00 0.00 28 1015.1
20260901113710 64 260 15.0 19.0 0.00 0.00 0.00 28 1015.0
20260901112716 64 260 14.0 19.0 0.00 0.00 0.00 28 1015.0
20260901111722 64 253 13.0 18.0 0.00 0.00 0.00 28 1015.0
20260901111225 64 256 13.0 18.0 0.00 0.00 0.00 28 1015.0
20260901110728 64 258 14.0 19.0 0.00 0.00 0.00 28 1015.0
20260901110231 64 256 14.0 20.0 0.00 0.00 0.00 28 1015.0
20260901105734 64 256 15.0 20.0 0.00 0.00 0.00 28 1015.0
20260901104243 64 257 11.0 16.0 0.00 0.00 0.00 30 1015.1
20260901103746 64 257 12.0 18.0 0.00 0.00 0.00 30 1015.2
20260901103249 64 257 12.0 18.0 0.00 0.00 0.00 31 1015.2
20260901102752 64 259 12.0 17.0 0.00 0.00 0.00 31 1015.2
20260901102255 63 255 12.0 17.0 0.00 0.00 0.00 32 1015.3
20260901101301 63 255 12.0 17.0 0.00 0.00 0.00 34 1015.2
20260901100804 63 249 11.0 16.0 0.00 0.00 0.00 36 1015.2
20260901100307 63 253 11.0 16.0 0.00 0.00 0.00 36 1015.3
20260901095810 63 251 11.0 16.0 0.00 0.00 0.00 38 1015.3
20260901095313 63 254 11.0 16.0 0.00 0.00 0.00 39 1015.3
20260901094319 63 253 9.0 14.0 0.00 0.00 0.00 40 1015.4
20260901093325 63 255 9.0 14.0 0.00 0.00 0.00 39 1015.5
20260901092331 63 255 9.0 14.0 0.00 0.00 0.00 40 1015.4
20260901091834 63 249 9.0 14.0 0.00 0.00 0.00 41 1015.4
20260901091337 64 250 10.0 15.0 0.00 0.00 0.00 40 1015.2
20260901090840 64 254 10.0 15.0 0.00 0.00 0.00 40 1016.2
20260901090343 64 255 11.0 15.0 0.00 0.00 0.00 41 1016.1
20260901085846 64 259 10.0 15.0 0.00 0.00 0.00 42 1016.1
20260901085349 64 258 11.0 15.0 0.00 0.00 0.00 43 1016.2
20260901084852 64 261 10.0 15.0 0.00 0.00 0.00 45 1016.2
20260901084355 64 265 11.0 15.0 0.00 0.00 0.00 45 1016.2
20260901083858 63 266 10.0 14.0 0.00 0.00 0.00 46 1016.3
20260901082904 63 265 8.0 14.0 0.00 0.00 0.00 49 1016.3
20260901082407 63 268 8.0 14.0 0.00 0.00 0.00 49 1016.3
20260901081413 62 261 6.0 11.0 0.00 0.00 0.00 50 1016.3
20260901080916 63 263 7.0 12.0 0.00 0.00 0.00 50 1016.3
20260901080419 63 260 6.0 12.0 0.00 0.00 0.00 50 1016.4
20260901075922 63 263 6.0 14.0 0.00 0.00 0.00 50 1016.4
20260901075425 63 269 7.0 14.0 0.00 0.00 0.00 50 1016.4
20260901074928 63 265 9.0 14.0 0.00 0.00 0.00 51 1016.3
20260901074431 63 265 9.0 14.0 0.00 0.00 0.00 51 1016.4
20260901073934 63 264 9.0 13.0 0.00 0.00 0.00 51 1016.4
20260901073437 63 255 9.0 14.0 0.00 0.00 0.00 50 1016.4
20260901072940 64 258 10.0 17.0 0.00 0.00 0.00 50 1016.3
20260901072443 64 260 10.0 17.0 0.00 0.00 0.00 50 1016.4
20260901071946 64 257 12.0 17.0 0.00 0.00 0.00 47 1016.2
20260901071449 65 262 11.0 17.0 0.00 0.00 0.00 44 1016.2
20260901070952 65 262 11.0 16.0 0.00 0.00 0.00 43 1016.2
20260901070455 65 265 12.0 16.0 0.00 0.00 0.00 42 1016.2
20260901065501 65 265 11.0 16.0 0.00 0.00 0.00 41 1016.3
20260901064507 65 255 10.0 15.0 0.00 0.00 0.00 41 1016.3
20260901064010 65 260 10.0 14.0 0.00 0.00 0.00 42 1016.4
20260901063513 65 258 9.0 13.0 0.00 0.00 0.00 41 1016.4
20260901062519 65 254 9.0 13.0 0.00 0.00 0.00 40 1016.5
20260901061525 65 251 9.0 14.0 0.00 0.00 0.00 36 1016.5
20260901061028 65 254 9.0 14.0 0.00 0.00 0.00 34 1016.5
20260901060531 66 259 9.0 13.0 0.00 0.00 0.00 31 1016.5
20260901060034 66 257 10.0 13.0 0.00 0.00 0.00 27 1016.6
20260901055040 66 253 9.0 14.0 0.00 0.00 0.00 26 1016.5
20260901054543 66 252 9.0 14.0 0.00 0.00 0.00 27 1016.4
20260901054046 65 254 10.0 13.0 0.00 0.00 0.00 28 1016.4
20260901052555 64 246 8.0 11.0 0.00 0.00 0.00 36 1016.4
20260901052058 64 242 8.0 12.0 0.00 0.00 0.00 40 1016.4
20260901051602 64 244 9.0 12.0 0.00 0.00 0.00 41 1016.4
20260901051104 64 241 9.0 12.0 0.00 0.00 0.00 43 1016.4
20260901050607 64 245 9.0 13.0 0.00 0.00 0.00 44 1016.3
20260901050110 64 240 10.0 13.0 0.00 0.00 0.00 44 1016.3
20260901045613 64 237 9.0 12.0 0.00 0.00 0.00 41 1016.3
20260901044619 65 238 9.0 13.0 0.00 0.00 0.00 37 1016.3
20260901044122 65 244 9.0 12.0 0.00 0.00 0.00 37 1016.2
20260901043625 65 245 9.0 13.0 0.00 0.00 0.00 36 1016.3
20260901042631 65 241 11.0 14.0 0.00 0.00 0.00 39 1016.3
20260901042134 65 245 10.0 14.0 0.00 0.00 0.00 41 1016.2
20260901041637 65 242 10.0 14.0 0.00 0.00 0.00 42 1016.2
20260901041140 65 241 10.0 14.0 0.00 0.00 0.00 42 1016.2
20260901040643 65 240 10.0 16.0 0.00 0.00 0.00 43 1016.0
20260901040146 65 240 11.0 16.0 0.00 0.00 0.00 44 1015.9
20260901035649 65 240 11.0 15.0 0.00 0.00 0.00 47 1015.8
20260901035152 64 242 11.0 15.0 0.00 0.00 0.00 50 1015.7
20260901034655 64 242 11.0 15.0 0.00 0.00 0.00 55 1015.7
20260901034158 63 237 12.0 15.0 0.00 0.00 0.00 61 1015.5
20260901033701 63 237 12.0 15.0 0.00 0.00 0.00 65 1015.4
20260901032707 63 235 11.0 15.0 0.00 0.00 0.00 68 1015.3
20260901031713 64 235 11.0 16.0 0.00 0.00 0.00 67 1015.1
20260901031216 64 240 11.0 16.0 0.00 0.00 0.00 66 1015.1
20260901030719 64 239 11.0 16.0 0.00 0.00 0.00 66 1015.1
20260901030222 64 245 12.0 17.0 0.00 0.00 0.00 66 1015.0
20260901025228 65 242 12.0 17.0 0.00 0.00 0.00 64 1015.1
20260901024731 65 242 13.0 19.0 0.00 0.00 0.00 64 1014.9
20260901023240 66 244 13.0 19.0 0.00 0.00 0.00 62 1014.7
20260901021749 67 258 12.0 19.0 0.00 0.00 0.00 60 1014.6
20260901021252 67 261 14.0 19.0 0.00 0.00 0.00 60 1014.4
20260901020258 68 254 14.0 18.0 0.00 0.00 0.00 57 1015.2
20260901015801 69 252 10.0 17.0 0.00 0.00 0.00 57 1015.1
20260901015305 69 262 11.0 17.0 0.00 0.00 0.00 56 1015.0
20260901014310 70 254 13.0 22.0 0.00 0.00 0.00 53 1015.0
20260901013316 71 260 12.0 20.0 0.00 0.00 0.00 51 1015.0
20260901012322 72 259 15.0 20.0 0.00 0.00 0.00 50 1015.1
20260901010831 73 262 10.0 19.0 0.00 0.00 0.00 50 1015.2
20260901010334 73 262 14.0 19.0 0.00 0.00 0.00 49 1015.1
20260901005340 74 258 13.0 19.0 0.00 0.00 0.00 49 1015.1
20260901003849 75 270 8.0 20.0 0.00 0.00 0.00 49 1015.3
20260901003352 75 254 10.0 22.0 0.00 0.00 0.00 49 1015.3
20260901002855 75 261 15.0 22.0 0.00 0.00 0.00 48 1015.3
20260901002358 76 268 13.0 22.0 0.00 0.00 0.00 48 1015.3
20260901001404 76 249 12.0 22.0 0.00 0.00 0.00 48 1015.4
20260901000907 76 280 13.0 21.0 0.00 0.00 0.00 48 1015.4
20260901000412 76 251 13.0 21.0 0.00 0.00 0.00 48 1015.6
20260831234919 77 264 14.0 22.0 0.00 0.00 0.00 46 1015.4
20260831234422 77 283 12.0 24.0 0.00 0.00 0.00 46 1015.6
20260831233428 78 278 13.0 26.0 0.00 0.00 0.00 46 1015.7
20260831232931 78 276 13.0 26.0 0.00 0.00 0.00 45 1015.4